Location: Góry Miechowskie
(50.3599°N, 20.1803°E)
Time: 01:33:44
(UTC+00:00)

Transit 2A Rocket - Pass Details

Date: 14 September 2024
Orbit: 582 x 908 km, 66.7° (Epoch: 10 October)

Event Time Altitude Azimuth Distance (km) Brightness Sun altitude
Exits shadow 23:38:31 44° 353° (N) 1,239 6.3 -35.0°
Drops below altitude 10° 23:43:12 10° 32° (NNE) 2,596 8.5 -34.7°
Sets 23:45:48 0° 38° (NE) 3,523 9.4 -34.6°
